SCP
0 0 0 0 0 0 0 0 1 1 1 1 0 0 0 0 0 0 0 0 0 0 0 0 0 0 0 0 0 0 0 0 0 0 0 0 0 0 0 0 0 0 0
0 0 0 0 0 0 0 0 0 0 0 0 0 0 0 0 0 0 0 0 0 0 0 0 0 0 0 0 0 0 0 0 0 0 0 0 0 0 0 0 0 0 0
0 0 0 0 0 0 0 0 0 0 0 0 0 0 0 0 0 0 0 0 0 0 1 1 0 1 1 1 1 0 0 0 0 0 0 0 0 0 0 0 0 0 0
0 0 0 0 0 0 0 0 0 0 0 0 0 0 0 0 0 0 1 1 1 1 1 3 2 2 2 1 1 1 1 0 0 0 0 0 0 0 0 0 0 0 0
0 0 0 0 0 0 0 0 0 0 0 0 0 0 0 0 0 1 1 1 2 2 2 1 2 3 3 2 1 1 1 1 0 0 0 0 1 0 0 0 0 0 0
0 0 0 0 0 0 0 0 0 0 0 0 0 0 0 0 1 1 1 1 1 2 2 2 2 2 2 2 1 1 1 1 1 1 1 1 0 0 0 0 0 0 0
0 0 0 0 0 0 0 0 0 0 0 0 0 0 0 0 0 2 2 1 1 1 2 2 2 2 2 2 1 1 1 1 1 0 0 0 0 0 0 0 0 0 0
0 0 0 0 0 0 0 0 0 0 0 0 0 0 0 0 0 1 1 1 1 1 1 1 1 2 2 2 1 1 1 1 1 0 0 0 0 0 0 0 0 0 0
0 0 0 0 1 0 0 0 0 0 0 0 0 0 0 0 1 0 1 1 1 1 0 1 1 1 1 1 1 1 1 0 0 0 0 0 0 0 0 0 0 0 0
0 0 0 0 0 1 1 0 0 0 0 0 0 0 0 0 0 1 0 1 1 1 0 0 1 1 1 1 1 1 1 0 0 0 0 0 0 0 0 0 0 0 0
0 0 0 0 0 0 0 1 1 1 0 0 0 0 0 0 0 0 0 1 0 0 0 0 0 1 1 1 1 0 0 0 0 0 0 0 0 0 0 0 0 0 0
0 0 0 0 0 0 0 1 1 0 0 0 0 0 0 0 0 0 0 0 0 0 0 0 0 1 0 0 0 0 0 0 0 0 0 0 0 0 0 0 0 0 0
0 0 0 0 0 0 0 0 1 1 0 0 0 0 0 0 0 0 0 0 0 0 0 0 0 0 0 0 0 0 0 0 0 0 0 0 0 0 0 0 0 0 0
0 0 0 0 0 0 0 0 0 1 0 0 0 0 0 0 0 0 0 0 0 0 0 0 0 0 0 0 0 0 0 0 0 0 0 0 0 0 0 0 0 0 0
0 0 0 0 0 0 0 0 0 0 0 0 0 0 0 0 0 0 0 0 0 0 0 0 0 0 0 0 0 0 0 0 0 0 0 0 0 0 0 0 0 0 0
0 0 0 0 0 0 0 0 0 0 0 0 0 0 0 0 0 0 0 0 1 0 0 0 0 0 0 0 0 0 0 0 0 0 0 0 0 0 0 0 0 0 0
0 0 0 0 0 0 0 0 0 0 0 0 0 0 0 0 0 0 0 0 0 0 0 0 0 0 0 0 0 0 0 0 0 0 0 0 0 0 0 0 0 0 0
0 0 0 0 0 0 0 0 0 0 0 0 0 0 0 0 0 0 -0 0 0 0 0 0 0 0 0 0 0 0 0 0 0 0 0 0 0 0 0 0 0 0 0
0 0 0 0 0 0 0 0 0 0 0 0 0 0 0 0 0 0 -0 -0 0 0 0 0 0 0 0 0 0 0 0 0 0 0 0 0 0 0 0 0 0 0 0
0 0 0 0 0 0 -0 -0 0 0 0 0 0 0 0 0 -0 -0 -0 -0 0 0 0 0 0 0 0 0 0 0 0 0 0 0 0 0 0 0 0 0 0 0 0
0 0 0 0 0 -0 -0 -0 0 0 0 0 0 0 0 0 0 0 -0 -0 0 0 -0 0 0 0 0 0 0 0 0 0 0 0 0 0 0 0 0 0 0 0 0
0 0 0 0 0 0 -0 -0 0 0 0 0 0 0 0 0 0 0 0 0 -0 -0 -0 0 0 0 0 0 0 0 0 -0 0 0 0 0 0 0 0 0 0 0 0
0 0 0 0 0 -0 -0 -0 -0 0 0 0 0 0 0 0 0 0 0 0 0 0 0 0 -0 0 0 -0 -0 -0 -0 0 0 0 0 0 0 0 0 0 0 -0 0
0 0 0 0 0 0 -0 -0 0 0 0 0 0 0 0 0 0 0 0 0 0 0 0 0 0 0 0 0 -0 -0 -0 -0 0 0 0 0 0 0 0 0 -0 -0 0
0 0 0 0 0 0 -0 -0 0 -0 -0 0 0 0 0 0 0 0 -0 0 0 0 0 0 0 0 -0 -0 -0 -0 0 0 0 0 0 0 -0 -0 -0 0 -0 -0 -0
0 0 -0 0 0 0 -0 -0 0 0 0 0 0 0 0 0 0 0 0 0 0 0 0 0 0 0 -0 -0 -0 0 0 0 0 -0 -0 -0 -0 0 0 0 -0 -0 -0
Wind_Speed_500mb
32 36 40 39 37 38 33 32 32 32 35 37 36 38 39 38 32 30 29 26 25 25 23 28 28 26 23 19 21 23 22 22 23 21 22 22 24 22 19 20 22 28 29
39 39 39 42 44 41 40 38 35 33 33 33 35 38 38 34 31 31 30 30 25 24 25 25 28 24 23 19 12 17 18 25 25 26 29 28 30 27 22 22 32 26 21
39 41 35 35 37 38 40 41 38 35 33 28 28 30 34 35 36 35 33 34 34 33 25 24 23 21 25 25 20 19 19 19 25 28 26 25 25 26 27 24 31 43 22
36 37 35 35 38 39 40 42 42 39 34 30 26 21 22 25 27 31 32 32 30 30 32 32 29 27 28 32 26 22 20 24 25 25 22 24 23 25 23 24 32 22 21
50 43 33 35 38 40 40 37 38 38 39 31 20 12 16 22 26 27 23 22 24 26 27 28 28 28 31 28 23 19 20 21 18 18 23 21 21 22 19 16 15 13 14
48 40 45 37 38 39 39 37 37 27 25 22 17 12 10 14 18 20 16 14 14 17 20 21 23 23 24 22 20 20 18 19 23 20 21 22 22 18 13 10 8 12 19
52 45 45 51 42 38 44 33 39 49 43 35 35 25 10 8 13 13 17 13 9 7 11 14 15 17 19 19 21 20 18 16 14 13 13 15 13 14 12 11 15 14 19
57 53 47 45 49 42 41 40 37 43 48 55 57 43 25 20 15 15 16 14 9 9 12 12 14 17 18 13 15 11 7 6 6 7 7 11 9 8 11 14 17 15 22
68 66 58 56 53 50 47 43 41 43 37 43 48 43 31 34 21 16 9 6 1 2 9 12 14 14 14 12 10 6 5 8 8 10 8 6 6 12 11 13 19 22 26
77 77 74 68 64 61 62 53 43 38 38 31 39 46 62 58 52 40 21 18 19 17 13 6 10 15 13 11 11 12 10 8 3 3 5 2 6 9 13 20 23 25 28
73 73 75 76 73 66 67 67 59 50 41 41 44 42 43 47 48 48 42 27 15 23 21 15 17 18 18 19 18 15 9 5 3 3 3 6 8 12 17 23 24 24 28
86 85 85 82 82 80 70 67 62 56 48 41 39 45 44 41 46 45 30 31 23 22 25 16 16 18 23 23 20 17 11 9 8 8 9 9 11 14 18 18 16 21 26
62 63 66 70 65 61 65 68 63 63 56 47 39 41 42 38 38 39 36 20 21 31 29 31 23 22 20 17 17 18 12 10 10 16 14 14 15 15 17 14 18 21 24
60 64 62 57 57 62 51 49 51 60 56 52 42 38 32 33 35 31 36 35 32 23 24 22 24 23 18 15 11 13 12 9 7 9 12 12 12 12 14 17 21 23 25
55 57 56 59 55 48 50 43 44 45 47 48 51 46 42 25 34 32 29 29 28 25 25 25 25 22 21 17 15 14 8 5 7 13 9 9 10 11 15 21 24 26 26
55 53 49 48 50 46 51 46 44 43 43 43 40 44 46 53 49 40 37 32 31 27 23 18 26 30 28 22 15 10 8 6 7 5 9 10 12 12 16 22 27 28 26
52 53 54 53 44 38 33 47 44 46 47 45 41 37 41 42 50 41 40 38 39 35 30 25 27 27 31 24 18 16 9 4 4 9 9 9 11 16 21 25 25 28 32
52 52 51 45 42 36 35 32 42 50 48 44 38 38 33 27 37 45 40 46 44 40 36 36 32 35 35 29 23 16 14 11 3 5 10 11 14 16 19 23 26 30 32
55 49 43 39 38 38 36 29 27 36 53 55 52 46 36 37 37 35 38 35 39 44 46 39 43 41 41 37 28 22 18 12 4 1 5 11 14 17 23 25 32 32 29
49 46 37 40 36 34 29 31 29 31 32 35 40 42 38 37 37 34 34 33 36 45 47 44 49 46 45 43 37 33 24 14 6 5 4 7 10 16 21 26 32 35 27
43 35 35 32 28 33 31 26 27 31 28 30 36 37 38 36 34 30 33 29 33 39 48 52 53 54 55 54 53 39 25 16 14 10 5 8 14 16 20 27 34 34 29
43 34 29 28 28 30 28 26 30 26 28 28 27 31 32 31 26 31 29 25 26 41 49 57 58 63 55 52 45 32 28 26 18 14 9 10 14 19 21 31 32 37 31
42 35 27 24 22 20 16 19 22 23 24 28 29 29 30 29 23 27 29 31 34 32 49 53 54 52 49 37 39 34 30 22 18 12 14 14 10 9 21 25 35 36 35
46 35 23 22 23 21 19 23 19 23 27 26 26 30 34 31 24 24 25 21 35 35 46 49 47 44 31 23 22 18 24 28 19 22 21 16 7 7 16 25 30 36 34
49 46 24 22 22 22 25 22 33 29 31 34 31 27 27 31 30 27 14 21 31 45 48 45 42 38 16 11 16 25 30 32 30 27 23 11 8 4 10 20 29 32 34
34 40 22 19 21 21 22 26 25 31 33 31 28 23 31 34 35 22 18 16 36 44 42 37 40 31 24 26 25 17 17 37 38 31 22 11 9 3 8 16 24 26 23
Wind_Direction_500mb
326 320 310 298 292 280 285 284 282 281 281 281 279 275 279 281 277 273 266 262 263 269 262 246 251 256 246 252 260 261 272 272 278 287 287 285 279 271 271 272 286 284 270
339 331 323 316 309 301 290 286 283 278 273 273 273 274 274 274 273 271 262 259 259 266 264 247 237 249 243 244 255 266 270 262 275 281 286 285 283 274 280 281 274 267 282
332 327 317 308 302 296 291 284 275 268 265 264 266 268 272 273 273 272 272 266 261 259 257 246 237 237 229 236 245 269 269 264 280 283 284 276 272 271 268 275 263 252 286
327 320 315 306 301 296 286 280 274 266 257 254 258 274 279 273 269 267 266 268 262 253 248 244 244 237 229 227 244 266 272 282 282 283 284 285 276 267 264 263 242 241 287
329 328 328 324 317 301 293 279 269 258 252 251 247 266 304 280 268 264 257 255 253 241 238 239 241 237 233 227 241 254 276 278 275 279 285 279 275 275 271 243 240 287 291
312 318 325 317 318 297 288 290 287 273 256 242 233 255 303 292 257 244 231 216 217 216 216 216 214 218 218 222 236 256 258 270 282 286 276 259 257 247 215 218 234 273 293
304 303 311 313 315 300 284 287 287 272 266 278 294 283 299 170 296 257 211 195 202 208 188 192 194 200 216 233 238 245 260 269 274 272 257 241 227 215 227 253 274 281 280
294 296 293 299 305 295 284 293 298 293 278 270 270 276 272 288 274 247 217 211 208 245 235 228 224 225 223 218 235 231 248 264 257 228 214 171 197 240 269 248 271 284 290
286 291 292 288 287 284 284 286 291 291 278 272 276 248 244 235 275 236 252 228 106 275 233 216 203 201 192 183 176 182 150 117 148 161 175 210 251 270 282 288 288 294 294
282 284 288 287 285 281 281 279 284 281 278 271 280 261 243 245 254 260 254 249 261 299 288 228 191 181 182 185 185 160 139 149 145 85 95 9 335 317 296 303 303 302 300
284 284 284 285 284 280 274 270 272 275 270 269 265 266 257 238 242 251 250 246 265 280 285 251 232 200 185 184 176 169 165 161 186 171 252 253 268 293 298 296 301 308 310
293 288 285 285 282 278 271 267 261 262 263 264 264 259 247 227 220 231 261 268 260 263 258 264 205 190 177 170 174 176 178 199 222 245 250 275 290 300 307 305 304 316 309
297 295 293 288 287 287 276 263 256 250 253 251 252 256 249 242 238 232 233 239 243 230 228 216 202 190 178 176 181 191 194 208 245 263 265 269 285 293 309 305 312 314 314
304 307 303 293 284 281 283 268 255 243 244 248 246 247 245 238 237 235 226 213 232 220 207 185 173 187 183 184 208 195 199 224 281 295 292 311 314 318 324 326 330 327 324
310 308 303 301 298 283 269 266 257 242 241 240 235 235 246 238 235 236 231 226 220 212 194 195 185 192 205 201 197 203 215 260 271 317 351 333 332 334 339 336 336 334 334
300 301 297 295 297 293 266 255 249 245 239 239 236 235 238 239 252 253 248 242 238 242 228 198 201 200 205 210 213 219 223 278 298 33 23 8 356 347 348 343 340 342 347
306 299 299 295 296 294 287 259 247 240 240 243 248 250 245 243 232 245 246 248 248 238 233 223 220 204 204 212 215 218 214 252 327 32 28 17 8 355 360 356 357 4 5
304 299 296 295 288 289 288 271 252 240 235 239 248 254 246 245 247 245 241 244 243 228 224 223 227 206 204 204 211 220 214 210 166 17 15 4 20 6 13 11 5 4 1
310 298 293 293 286 286 281 270 260 243 244 248 248 243 245 245 246 240 234 228 226 219 216 216 216 218 200 196 203 206 217 192 172 352 41 27 24 29 26 18 14 5 4
310 306 293 277 275 283 270 262 257 248 247 240 233 236 240 241 242 238 228 226 217 214 211 210 217 216 204 195 203 206 201 205 181 208 86 25 36 44 35 25 12 7 4
316 309 293 280 277 278 260 255 263 247 244 242 239 234 227 233 229 234 222 219 215 210 206 203 208 208 198 196 200 203 204 206 208 188 112 74 62 54 38 28 20 17 18
326 303 286 281 282 277 255 247 247 235 234 231 228 216 217 213 223 213 215 219 222 215 205 202 200 200 199 203 210 209 203 200 193 197 159 114 77 51 40 36 22 15 17
328 313 285 279 268 258 245 243 238 223 226 219 215 208 202 208 216 210 216 217 222 217 210 199 200 200 196 225 218 206 204 211 212 201 165 128 100 58 43 30 23 16 16
341 321 282 267 261 249 251 222 220 218 213 210 205 206 205 205 200 200 208 226 214 207 198 195 198 193 220 220 202 229 204 206 196 167 152 141 138 70 40 31 15 17 19
332 337 287 262 256 250 231 227 220 224 217 212 209 209 202 200 204 212 210 231 203 187 188 200 203 198 229 196 203 191 189 196 172 149 140 144 187 93 33 27 18 16 26
338 329 311 253 247 236 227 202 209 210 211 205 197 199 205 196 193 187 203 191 177 180 180 189 185 192 177 151 164 177 200 184 160 150 169 164 168 75 346 13 21 30 29
Wind_Speed_850mb
32 36 40 39 37 38 33 32 32 32 35 37 36 38 39 38 32 30 29 26 25 25 23 28 28 26 23 19 21 23 22 22 23 21 22 22 24 22 19 20 22 28 29
39 39 39 42 44 41 40 38 35 33 33 33 35 38 38 34 31 31 30 30 25 24 25 25 28 24 23 19 12 17 18 25 25 26 29 28 30 27 22 22 32 26 21
39 41 35 35 37 38 40 41 38 35 33 28 28 30 34 35 36 35 33 34 34 33 25 24 23 21 25 25 20 19 19 19 25 28 26 25 25 26 27 24 31 43 22
36 37 35 35 38 39 40 42 42 39 34 30 26 21 22 25 27 31 32 32 30 30 32 32 29 27 28 32 26 22 20 24 25 25 22 24 23 25 23 24 32 22 21
50 43 33 35 38 40 40 37 38 38 39 31 20 12 16 22 26 27 23 22 24 26 27 28 28 28 31 28 23 19 20 21 18 18 23 21 21 22 19 16 15 13 14
48 40 45 37 38 39 39 37 37 27 25 22 17 12 10 14 18 20 16 14 14 17 20 21 23 23 24 22 20 20 18 19 23 20 21 22 22 18 13 10 8 12 19
52 45 45 51 42 38 44 33 39 49 43 35 35 25 10 8 13 13 17 13 9 7 11 14 15 17 19 19 21 20 18 16 14 13 13 15 13 14 12 11 15 14 19
57 53 47 45 49 42 41 40 37 43 48 55 57 43 25 20 15 15 16 14 9 9 12 12 14 17 18 13 15 11 7 6 6 7 7 11 9 8 11 14 17 15 22
68 66 58 56 53 50 47 43 41 43 37 43 48 43 31 34 21 16 9 6 1 2 9 12 14 14 14 12 10 6 5 8 8 10 8 6 6 12 11 13 19 22 26
77 77 74 68 64 61 62 53 43 38 38 31 39 46 62 58 52 40 21 18 19 17 13 6 10 15 13 11 11 12 10 8 3 3 5 2 6 9 13 20 23 25 28
73 73 75 76 73 66 67 67 59 50 41 41 44 42 43 47 48 48 42 27 15 23 21 15 17 18 18 19 18 15 9 5 3 3 3 6 8 12 17 23 24 24 28
86 85 85 82 82 80 70 67 62 56 48 41 39 45 44 41 46 45 30 31 23 22 25 16 16 18 23 23 20 17 11 9 8 8 9 9 11 14 18 18 16 21 26
62 63 66 70 65 61 65 68 63 63 56 47 39 41 42 38 38 39 36 20 21 31 29 31 23 22 20 17 17 18 12 10 10 16 14 14 15 15 17 14 18 21 24
60 64 62 57 57 62 51 49 51 60 56 52 42 38 32 33 35 31 36 35 32 23 24 22 24 23 18 15 11 13 12 9 7 9 12 12 12 12 14 17 21 23 25
55 57 56 59 55 48 50 43 44 45 47 48 51 46 42 25 34 32 29 29 28 25 25 25 25 22 21 17 15 14 8 5 7 13 9 9 10 11 15 21 24 26 26
55 53 49 48 50 46 51 46 44 43 43 43 40 44 46 53 49 40 37 32 31 27 23 18 26 30 28 22 15 10 8 6 7 5 9 10 12 12 16 22 27 28 26
52 53 54 53 44 38 33 47 44 46 47 45 41 37 41 42 50 41 40 38 39 35 30 25 27 27 31 24 18 16 9 4 4 9 9 9 11 16 21 25 25 28 32
52 52 51 45 42 36 35 32 42 50 48 44 38 38 33 27 37 45 40 46 44 40 36 36 32 35 35 29 23 16 14 11 3 5 10 11 14 16 19 23 26 30 32
55 49 43 39 38 38 36 29 27 36 53 55 52 46 36 37 37 35 38 35 39 44 46 39 43 41 41 37 28 22 18 12 4 1 5 11 14 17 23 25 32 32 29
49 46 37 40 36 34 29 31 29 31 32 35 40 42 38 37 37 34 34 33 36 45 47 44 49 46 45 43 37 33 24 14 6 5 4 7 10 16 21 26 32 35 27
43 35 35 32 28 33 31 26 27 31 28 30 36 37 38 36 34 30 33 29 33 39 48 52 53 54 55 54 53 39 25 16 14 10 5 8 14 16 20 27 34 34 29
43 34 29 28 28 30 28 26 30 26 28 28 27 31 32 31 26 31 29 25 26 41 49 57 58 63 55 52 45 32 28 26 18 14 9 10 14 19 21 31 32 37 31
42 35 27 24 22 20 16 19 22 23 24 28 29 29 30 29 23 27 29 31 34 32 49 53 54 52 49 37 39 34 30 22 18 12 14 14 10 9 21 25 35 36 35
46 35 23 22 23 21 19 23 19 23 27 26 26 30 34 31 24 24 25 21 35 35 46 49 47 44 31 23 22 18 24 28 19 22 21 16 7 7 16 25 30 36 34
49 46 24 22 22 22 25 22 33 29 31 34 31 27 27 31 30 27 14 21 31 45 48 45 42 38 16 11 16 25 30 32 30 27 23 11 8 4 10 20 29 32 34
34 40 22 19 21 21 22 26 25 31 33 31 28 23 31 34 35 22 18 16 36 44 42 37 40 31 24 26 25 17 17 37 38 31 22 11 9 3 8 16 24 26 23
Wind_Direction_850mb
326 320 310 298 292 280 285 284 282 281 281 281 279 275 279 281 277 273 266 262 263 269 262 246 251 256 246 252 260 261 272 272 278 287 287 285 279 271 271 272 286 284 270
339 331 323 316 309 301 290 286 283 278 273 273 273 274 274 274 273 271 262 259 259 266 264 247 237 249 243 244 255 266 270 262 275 281 286 285 283 274 280 281 274 267 282
332 327 317 308 302 296 291 284 275 268 265 264 266 268 272 273 273 272 272 266 261 259 257 246 237 237 229 236 245 269 269 264 280 283 284 276 272 271 268 275 263 252 286
327 320 315 306 301 296 286 280 274 266 257 254 258 274 279 273 269 267 266 268 262 253 248 244 244 237 229 227 244 266 272 282 282 283 284 285 276 267 264 263 242 241 287
329 328 328 324 317 301 293 279 269 258 252 251 247 266 304 280 268 264 257 255 253 241 238 239 241 237 233 227 241 254 276 278 275 279 285 279 275 275 271 243 240 287 291
312 318 325 317 318 297 288 290 287 273 256 242 233 255 303 292 257 244 231 216 217 216 216 216 214 218 218 222 236 256 258 270 282 286 276 259 257 247 215 218 234 273 293
304 303 311 313 315 300 284 287 287 272 266 278 294 283 299 170 296 257 211 195 202 208 188 192 194 200 216 233 238 245 260 269 274 272 257 241 227 215 227 253 274 281 280
294 296 293 299 305 295 284 293 298 293 278 270 270 276 272 288 274 247 217 211 208 245 235 228 224 225 223 218 235 231 248 264 257 228 214 171 197 240 269 248 271 284 290
286 291 292 288 287 284 284 286 291 291 278 272 276 248 244 235 275 236 252 228 106 275 233 216 203 201 192 183 176 182 150 117 148 161 175 210 251 270 282 288 288 294 294
282 284 288 287 285 281 281 279 284 281 278 271 280 261 243 245 254 260 254 249 261 299 288 228 191 181 182 185 185 160 139 149 145 85 95 9 335 317 296 303 303 302 300
284 284 284 285 284 280 274 270 272 275 270 269 265 266 257 238 242 251 250 246 265 280 285 251 232 200 185 184 176 169 165 161 186 171 252 253 268 293 298 296 301 308 310
293 288 285 285 282 278 271 267 261 262 263 264 264 259 247 227 220 231 261 268 260 263 258 264 205 190 177 170 174 176 178 199 222 245 250 275 290 300 307 305 304 316 309
297 295 293 288 287 287 276 263 256 250 253 251 252 256 249 242 238 232 233 239 243 230 228 216 202 190 178 176 181 191 194 208 245 263 265 269 285 293 309 305 312 314 314
304 307 303 293 284 281 283 268 255 243 244 248 246 247 245 238 237 235 226 213 232 220 207 185 173 187 183 184 208 195 199 224 281 295 292 311 314 318 324 326 330 327 324
310 308 303 301 298 283 269 266 257 242 241 240 235 235 246 238 235 236 231 226 220 212 194 195 185 192 205 201 197 203 215 260 271 317 351 333 332 334 339 336 336 334 334
300 301 297 295 297 293 266 255 249 245 239 239 236 235 238 239 252 253 248 242 238 242 228 198 201 200 205 210 213 219 223 278 298 33 23 8 356 347 348 343 340 342 347
306 299 299 295 296 294 287 259 247 240 240 243 248 250 245 243 232 245 246 248 248 238 233 223 220 204 204 212 215 218 214 252 327 32 28 17 8 355 360 356 357 4 5
304 299 296 295 288 289 288 271 252 240 235 239 248 254 246 245 247 245 241 244 243 228 224 223 227 206 204 204 211 220 214 210 166 17 15 4 20 6 13 11 5 4 1
310 298 293 293 286 286 281 270 260 243 244 248 248 243 245 245 246 240 234 228 226 219 216 216 216 218 200 196 203 206 217 192 172 352 41 27 24 29 26 18 14 5 4
310 306 293 277 275 283 270 262 257 248 247 240 233 236 240 241 242 238 228 226 217 214 211 210 217 216 204 195 203 206 201 205 181 208 86 25 36 44 35 25 12 7 4
316 309 293 280 277 278 260 255 263 247 244 242 239 234 227 233 229 234 222 219 215 210 206 203 208 208 198 196 200 203 204 206 208 188 112 74 62 54 38 28 20 17 18
326 303 286 281 282 277 255 247 247 235 234 231 228 216 217 213 223 213 215 219 222 215 205 202 200 200 199 203 210 209 203 200 193 197 159 114 77 51 40 36 22 15 17
328 313 285 279 268 258 245 243 238 223 226 219 215 208 202 208 216 210 216 217 222 217 210 199 200 200 196 225 218 206 204 211 212 201 165 128 100 58 43 30 23 16 16
341 321 282 267 261 249 251 222 220 218 213 210 205 206 205 205 200 200 208 226 214 207 198 195 198 193 220 220 202 229 204 206 196 167 152 141 138 70 40 31 15 17 19
332 337 287 262 256 250 231 227 220 224 217 212 209 209 202 200 204 212 210 231 203 187 188 200 203 198 229 196 203 191 189 196 172 149 140 144 187 93 33 27 18 16 26
338 329 311 253 247 236 227 202 209 210 211 205 197 199 205 196 193 187 203 191 177 180 180 189 185 192 177 151 164 177 200 184 160 150 169 164 168 75 346 13 21 30 29